Tracking 18840 objects as of 19-November-2017
HD Live streaming from Space Station
objects crossing your sky now

COSMOS 2252

Track COSMOS 2252 now!
10-day predictions
COSMOS 2252 is classified as:


NORAD ID: 22687
Int'l Code: 1993-038A
Perigee: 1,411.3 km
Apogee: 1,422.1 km
Inclination: 82.6 °
Period: 114.0 minutes
Semi major axis: 7787 km
RCS: 1.1207 m2 (large)
Launch date: June 24, 1993
Source: Commonwealth of Independent States (former USSR) (CIS)
Launch site: PLESETSK MISSILE AND SPACE COMPLEX (PKMTR)
aabbcc
Your satellite tracking list
Your tracking list is empty




NASA's NSSDC Master Catalog

Two Line Element Set (TLE):
1 22687U 93038A   17322.57877265 +.00000010 +00000-0 -54931-6 0  9990
2 22687 082.5842 069.3499 0006975 246.9601 199.4423 12.63246974124981
Source of the keplerian elements: AFSPC